Tracking 19638 objects as of 20-Apr-2019
HD Live streaming from Space Station
objects crossing your sky now

THORAD DELTA 1 DEB

Track THORAD DELTA 1 DEB now!
10-day predictions


NORAD ID: 42609
Int'l Code: 1974-089GA
Perigee: 1,365.3 km
Apogee: 1,441.7 km
Inclination: 101.1 °
Period: 113.7 minutes
Semi major axis: 7774 km
RCS: Unknown
Launch date: November 15, 1974
Source: United States (US)
Launch site: AIR FORCE WESTERN TEST RANGE (AFWTR)

Note: This is SATELLITE DEBRIS
aabbcc
Your satellite tracking list
Your tracking list is empty




NASA's NSSDC Master Catalog

Two Line Element Set (TLE):
1 42609U 74089GA  19101.84976271  .00000050  00000-0  48983-3 0  9995
2 42609 101.1279 110.5302 0049124 339.1385  20.7693 12.66478032674696
Source of the keplerian elements: AFSPC